Flag for Canada Weather past 2 weeks in Red Deer, Alberta, Canada

Now
43 °F

Passing clouds.


Feels Like: 37 °F
Forecast: 42 / 68 °F
Wind: 10 mph from Southwest

Location: Red Deer

Current Time: Sep 20, 2014 at 8:36:48 AM

Latest Report: Sep 20, 2014 at 7:00 AM


Visibility: 15 mi

Pressure: 30.18 "Hg

Humidity: 76%

Dew point: 36 °F

Location of Red DeerLocation

Historic Weather in Red Deer — Graph

°F

Red Deer temperature yesterday

Maximum temperature yesterday: 75 °F (at 4:00 PM)
Minimum temperature yesterday: 43 °F (at 6:00 AM)
Average temperature yesterday: 58 °F

Past Weeks' High & Low Weather Summary

 TemperatureHumidityPressure
High77 °F (Sep 7, 2:00 PM)100% (Sep 5, 7:00 AM)30.69 "Hg (Sep 5, 7:00 AM)
Low25 °F (Sep 11, 5:00 AM)24% (Sep 17, 3:00 PM)29.57 "Hg (Sep 18, 6:00 AM)
Average48 °F75%30.10 "Hg
* Reported Sep 5 7:00 AM — Sep 20 7:00 AM, Red Deer, Weather by CustomWeather, © 2014

Note: Actual official high and low records may vary slightly from our data, if they occured in-between our weather recording intervals... More about our weather records

Advertising

Red Deer weather history for previous 24 hours

 ConditionsComfort  
Time TempWeatherWind HumidityBarometerVisibility
7:00 AM
Sep 20
43 °FPassing clouds.10 mph76%30.18 "Hg15 mi
6:00 AM45 °FPassing clouds.10 mph76%30.15 "Hg15 mi
5:00 AM43 °FPassing clouds.9 mph81%30.12 "Hg15 mi
4:00 AM46 °FPassing clouds.9 mph76%30.09 "Hg15 mi
3:00 AM48 °FPassing clouds.6 mph71%30.06 "Hg15 mi
2:00 AM50 °FPassing clouds.6 mph71%30.02 "Hg15 mi
1:00 AM50 °FPassing clouds.3 mph82%30.01 "Hg15 mi
12:00 AM50 °FPassing clouds.2 mph82%29.99 "Hg15 mi
11:00 PM
Sep 19
54 °FPassing clouds.5 mph72%29.96 "Hg15 mi
10:00 PM59 °FSprinkles. Passing clouds.15 mph63%29.92 "Hg15 mi
9:00 PM57 °FPassing clouds.7 mph72%29.89 "Hg15 mi
8:00 PM63 °FPartly sunny.6 mph49%29.83 "Hg15 mi
7:00 PM70 °FScattered clouds.2 mph38%29.80 "Hg15 mi
6:00 PM72 °FScattered clouds.6 mph36%29.76 "Hg15 mi
5:00 PM72 °FScattered clouds.9 mph36%29.76 "Hg15 mi
4:00 PM75 °FBroken clouds.13 mph31%29.74 "Hg15 mi
3:00 PM70 °FPartly sunny.7 mph35%29.76 "Hg15 mi
2:00 PM73 °FPartly sunny.No wind33%29.75 "Hg15 mi
1:00 PM70 °FPartly sunny.8 mph43%29.76 "Hg15 mi
12:00 PM66 °FPartly sunny.6 mph52%29.78 "Hg15 mi
11:00 AM61 °FPartly sunny.3 mph63%29.78 "Hg15 mi
10:00 AM54 °FScattered clouds.3 mph82%29.79 "Hg15 mi
9:00 AM48 °FPartly sunny.6 mph94%29.78 "Hg10 mi
8:00 AM46 °FPassing clouds.2 mph100%29.76 "Hg10 mi
Weather by CustomWeather, © 2014

See weather overviewHow to use our weather pages